Location: �couen
(49.0206°N, 2.3831°E)
Time: 23:19:36
(UTC+00:00)

ATLAS 3B R/B - Pass Details

Date: 24 May 2022
Orbit: 976 x 1218 km, 63.8° (Epoch: 20 June)

Event Time Altitude Azimuth Distance (km) Brightness Sun altitude
Rises 22:31:18 0° 318° (NW) 3,951 6.9 -18.1°
Reaches altitude 10° 22:33:56 10° 316° (NW) 3,023 6.0 -18.2°
Maximum altitude 22:41:08 68° 235° (SW) 1,256 2.9 -18.5°
Enters shadow 22:45:18 29° 161° (SSE) 2,050 3.6 -18.7°
